Погода в Игарке

Погода в Игарке : погода сейчас, прогноз погоды и архив. Всё, что Вы хотите узнать о погоде в Игарке!

Поиск расширенной информации на нашем сайте:

Другие новости

Новости СМИ2

Главная страница сайта

Новости сайта

02.10.2013

Напоминаем, что на нашем новом сайте вы можете получить высокодетализированные прогнозы погоды по пунктам России, СНГ и мира (включающие важные для авиации метеовеличины, такие как направление и скорость ветра, видимость, явления погоды, количество и форма облачности, нижняя и верхняя граница облачности), а также ознакомиться с разнообразными материалами по авиационной метеорологии и подборкой полезных ссылок на эту тему.

Сайт Метеоцентр.Азия посвящён разработке технологий оптимизации авиаметеорологического обслуживания, включая проектирование и перспективное создание нескольких автоматизированных авиаметеорологических систем:
- система выпуска высокодетальных прогностических карт явлений погоды для нижнего воздушного пространства по России и ближнему зарубежью;
- система верификации прогнозов TAF (выпускаемых синоптиками официальных АМСГ РФ и ближнего зарубежья) и AUTOTAF (выпускаемых сайтом Метеоцентр.Азия) - выявление ошибок, онлайн-сопоставление с фактической погодой METAR, автоматическое внесение коррективов в прогнозы при резком отклонении фактической погоды от прогноза, подсчёт оправдываемости прогнозов по элементам и в целом;
- система обработки, анализа и отображения авиаметеорологической информации для применения провайдерами метеорологической информации.

Рекомендуем: Доставка канапе и фуршетных блюд по Москве catering.su.

Погода в Игарке - сегодня

Время (UTC), дата Ветер
(°,м/с) 
Видим.   Явления Облачность Т
(°С)
Тd
(°С)
f(%) Тe
(°С)
Pmin
(гПа)
dP
(гПа)
Po
(мм)
O2
(г/м3)
Тmin Tmax R s Состояние
почвы
12 25.03.17 080 (В) 20000 м    9/0 средняя 
[Ac As]
-1.2 -5.9 70 -4  1002  -2.3  749  304    +0.9       
15 25.03.17 тихо ()   10 км    9/9 2000 м средняя 
[Ac As]
-2.8 -6.5 76 -3  998.8  -3.2  746  305           
18 25.03.17 300 (СЗ) 10 км    9/9 2000 м средняя 
[Ac As]
-1.6 -5 78 -1  996.5  -2.3  745  302           
21 25.03.17 330 (СЗ) 4000 м  слаб. снег  9/8 660 м средняя 
[Sc|Ac As]
-3.7 -5.5 87 -3  994.7  -1.8  743  304           
00 26.03.17 300 (СЗ) 4000 м  слаб. снег  9/8 600 м средняя 
[Sc|Ac As]
-3.6 -4.7 92 -6  994.7  743  304  -4.3    69  равномерный
сухой снег
100% 
03 26.03.17 270 (З) 20000 м  {снег}  9/9 270 м 
[St]
-4 -5.5 89 -6  997.3  2.6  745  305           
06 26.03.17 240 (ЮЗ) 20000 м  в посл. час ливневой снег  9/8 600 м кучево-дожд., средняя 
[Cb cap|Ac cuf]
-2 -4.8 81 -5  999.2  1.9  747  304           
09 26.03.17 260 (З) 4{10}  10 км  слаб. ливневой снег  10/10 540 м кучево-дожд. 
[Cb cap]
-2.8 -5.5 82 -6  1001.1  1.9  748  305           
12 26.03.17 240 (ЮЗ) 10 км  слаб. ливневой снег  9/8 700 м кучево-дожд., средняя 
[Cb cap|Ac cuf]
-3 -5.4 83 -5  1003.2  750  306    -1.3  0.7     
15 26.03.17 230 (ЮЗ) 10 км  {ливн. осадки}  9/3 1000 м средняя 
[Sc|Ac trans]
-4.2 -6.8 82 -6  1004.2  750  308           
18 26.03.17 200 (Ю) 10 км  слаб. ливневой снег  9/9 660 м кучево-дожд. 
[Cb cap]
-4.9 -6.6 88 -6  1004.7  0.5  751  309           
21 26.03.17 150 (ЮВ) 10 км  слаб. ливневой снег  9/9 500 м кучево-дожд. 
[Cb cap]
-5.6 -7 90 -5  1005.7  752  310           
00 27.03.17 210 (ЮЗ) 20000 м  {ливн. осадки}  9/9 800 м кучево-дожд. 
[Cb cap]
-3.6 -5.1 89 -5  1007.2  1.5  753  308  -6.1    0.4  68  равномерный
сухой снег
100% 
03 27.03.17 200 (Ю) 20000 м  {ливн. осадки}  9/9 480 м кучево-дожд. 
[Cb cap]
-2.4 -4.3 87 -4  1008.5  1.4  754  307           
06 27.03.17 200 (Ю) 20000 м  {ливн. осадки}  8/4 600 м верхняя 
[Sc diur, vesp|Ci ing]
-0.6 -5.1 72 -3  1008.5  754  305           
09 27.03.17 160 (Ю) 20000 м    6/3 1000 м верхняя 
[Sc|Ci fib]
+0.1 -5 69 -3  1007.9  -0.6  753  304           
12 27.03.17 160 (Ю) 6{11}  20000 м  позёмок  9/6 660 м средняя 
[Sc|Ac trans]
-2.1 -4.6 83 -6  1006.4  -1.5  752  306    +0.2  0.0     
15 27.03.17 160 (Ю) 6{13}  10 км  позёмок  9/9 400 м 
[Frnb]
-2.8 -4.8 86 -7  1005.4  -1  751  306           
18 27.03.17 160 (Ю) 6{13}  10 км  позёмок  9/9 360 м 
[Frnb]
-1.9 -4 86 -6  1002.8  -2.6  749  305           
21 27.03.17 170 (Ю) 6{10}  10 км  позёмок  9/9 360 м 
[Frnb]
-1.8 -3.6 87 -6  1001.1  -1.7  748  304           
00 28.03.17 170 (Ю) 6{10}  4000 м  слаб. ливневой снег  10/10 240 м кучево-дожд. 
[Cb cap]
-1.7 -2.5 94 -5  1000.3  -0.8  748  303  -3.4    0.6  67  равномерный
сухой снег
100% 
03 28.03.17 210 (ЮЗ) 5{10}  20000 м  {ливн. осадки}  9/8 630 м кучево-дожд., верхняя 
[Cb cap|Ci ing]
-0.5 -3.3 81 -4  1000.5  0.2  748  302           
06 28.03.17 200 (Ю) 6{11}  10 км  слаб. ливневой снег  10/10 300 м кучево-дожд. 
[Cb cap]
-0.1 -2.5 84 -4  1001.2  0.7  748  302           
09 28.03.17 200 (Ю) 6{11}  20000 м  в посл. час ливневой снег  9/9 720 м кучево-дожд. 
[Cb cap]
-0.2 -2.5 84 -4  1002.2  749  302           
12 28.03.17 200 (Ю) 3{10}  20000 м  {ливн. осадки}  8/6 800 м средняя, верхняя 
[Sc|Ac trans|Ci fib]
-0.1 -3.5 78 -2  1003.2  750  303    +0.5  0.3     
Время (UTC), дата Ветер
(°,м/с) 
Видим.   Явления Облачность Т
(°С)
Тd
(°С)
f(%) Тe
(°С)
Pmin
(гПа)
dP
(гПа)
Po
(мм)
O2
(г/м3)
Тmin Tmax R s Состояние
почвы

Для получения пояснительной информации подведите курсор к названию столбца.

ПОГОДА в Игарке - архив

Всё, что Вы хотите узнать о погоде в Игарке - удобно и подробно!

Выберите нужную дату (начиная с 1 января 2015* года) и нажмите кнопку "Найти".
Будут отображены архивные сводки погоды по пункту Игарка, начиная с указанной даты.


Отображать данные в формате CSV (для использования в таблицах Excel)


Внимание! Наш архив погоды предназначен исключительно для личного некоммерческого использования в познавательных целях. Если Вам необходимы официальные справки о состоянии погоды (для производственных, юридических, коммерческих и т.п. целей), обращайтесь в органы Росгидромета.

*Примечание: данная дата относится к архиву по метеостанциям СССР (Россия, СНГ, Балтия).
Архив по метеостанциям Зарубежной Европы и Азии (кроме Китая) хранится 10 дней, по другим регионам земного шара (Китай, Африка, Америка, Австралия, Океания) - 1 день.

Игарка - район местоположения метеостанции


Название, широта, долгота, высота метеостанции:
Игарка 67.5°ш. 86.4°д. 25 м над ур. моря [Российская Федерация]

Дополнительная информация

В oтличие oт бoльшинства пoгoдных сайтoв мы публикуем пoдрoбную метеoинфoрмацию в детальнoм прoфессиoнальнoм фoрмате.

Характеристики температуры и влажнoсти вoздуха измеряются на высoте 2 м в тени вдали oт зданий и деревьев.
Скoрoсть ветра измеряется на высoте 10 м (на урoвне рoста челoвека скoрoсть ветра ниже в 1.5-2 раза). Если метеoстанция нахoдится в гoрoде или в лесу, тo скoрoсть ветра занижена на 2-4 м/с пo сравнению с oткрытым местoм. Скoрoсть ветра над акватoриями крупных рек и oзёр, а также на вершинах хoлмoв на 2-5 м/с выше, чем в oбычных услoвиях.
Атмoсфернoе давление в разных тoчках местнoсти мoжет значительнo oтличаться oт давления на метеoстанции, в зависимoсти oт услoвий рельефа (при пoдъёме на 10 м давление пoнижается примернo на 1 мм рт.ст.).